Regional Weather Roundup
Issued by NWS New Orleans/Baton Rouge, LA

Home | Current Version | Previous Version | Text Only | Print | Product List | Glossary Off
Versions: 1 2 3 4 5 6 7 8 9 10 11 12 13 14 15 16 17 18 19 20 21 22 23 24 25 26 27 28 29 30 31 32 33 34 35 36 37 38 39 40 41 42 43 44 45 46 47 48 49 50

062
ASUS44 KLIX 180605
RWRLIX
NEW ORLEANS REGIONAL WEATHER ROUNDUP
NATIONAL WEATHER SERVICE NEW ORLEANS LA
100 AM CDT THU SEP 18 2014

NOTE: "FAIR" INDICATES FEW OR NO CLOUDS BELOW 12,000 FEET WITH NO
      SIGNIFICANT WEATHER AND/OR OBSTRUCTIONS TO VISIBILITY.
      SKY/WX - SKY CONDITION AND SIGNIFICANT WEATHER.
      TMP - AIR TEMPERATURE.     DP    - DEWPOINT TEMPERATURE.
      RH  - RELATIVE HUMIDITY.   PRES  - PRESSURE.
      HI  - HEAT INDEX.          WCI   - WIND CHILL INDEX.

*  THESE STATIONS ARE NOT NWS OR FAA STATIONS AND ARE NOT UNDER
   NWS QUALITY CONTROL.

LAZ038-040-048-061>063-065>067-069-180700-
SOUTHEAST LOUISIANA

CITY           SKY/WX    TMP DP  RH WIND       PRES   REMARKS
N.O. AUDUBON     N/A     76  73  91 MISG        N/A
6HR MIN TEMP:  76; 6HR MAX TEMP:  84;

N.O. INTL ARPT CLEAR     76  71  85 W3        29.92S
6HR MIN TEMP:  76; 6HR MAX TEMP:  84;

N.O. LAKEFRONT PTCLDY    79  73  82 SW7       29.91F
6HR MIN TEMP:  78; 6HR MAX TEMP:  84;

N.O. DOWNTOWN*   N/A     81  70  69 CALM      29.92S
6HR MIN TEMP:  79; 6HR MAX TEMP:  84;

SLIDELL        MOCLDY    74  72  93 CALM      29.91S
6HR MIN TEMP:  74; 6HR MAX TEMP:  82;

BATON ROUGE    CLEAR     75  73  93 SW3       29.91F
6HR MIN TEMP:  75; 6HR MAX TEMP:  83;

BOOTHVILLE     PTCLDY    80  76  87 CALM      29.91F
6HR MIN TEMP:  79; 6HR MAX TEMP:  82;

BELLE CHASSE   CLEAR     74  70  87 CALM      29.91F
6HR MIN TEMP:  73; 6HR MAX TEMP:  83;

BOGALUSA*        N/A     75  72  89 CALM      29.93S FOG
6HR MIN TEMP:  75; 6HR MAX TEMP:  82;

GALLIANO*      NOT AVBL
NEW ROADS*       N/A     74  73  99 CALM      29.92S FOG
6HR MIN TEMP:  74; 6HR MAX TEMP:  82;

GONZALES*        N/A     74  74 100 CALM      29.90F
6HR MIN TEMP:  73; 6HR MAX TEMP:  79;

HAMMOND*       NOT AVBL
HOUMA*         PTCLDY   N/A N/A N/A CALM      29.91F
                                      6HR PCP:  0.01;

PORT FOURCHON* CLEAR     81  75  83 NW5       29.94F

$$

MSZ070-080>082-180700-
SOUTHERN MISSISSIPPI

CITY           SKY/WX    TMP DP  RH WIND       PRES   REMARKS
MCCOMB         MOCLDY    75  72  90 CALM      29.93S
6HR MIN TEMP:  74; 6HR MAX TEMP:  82;

GULFPORT       PTCLDY    76  72  87 CALM      29.90F
6HR MIN TEMP:  75; 6HR MAX TEMP:  83;

BILOXI         PTCLDY    78  72  81 CALM      29.91S
6HR MIN TEMP:  78; 6HR MAX TEMP:  82;

PASCAGOULA     PTCLDY    73  72  96 NE3       29.91F
6HR MIN TEMP:  72; 6HR MAX TEMP:  80;


$$

COASTAL OBSERVATIONS
LAKE AND NEARSHORE STATIONS

STATION/POSITION TIME  TEMP    WIND        PRES    WAVE
                       AIR SEA DIR/SP/G            HT/PER
                 (UTC) (F)     (DEG/KT/KT) (MB)    (FT/S)
PASCAGOULA       0600   77      50/  3/  3 1012.2
WAVELAND YACHT   0600   77     290/  3/  3 1012.1
GRAND ISLE       0600   81 87  220/  1/  1 1013.3
SOUTHWEST PASS   0600   82 91  270/  8/  9 1013.2
NEW CANAL        0600   79 83  210/  3/  4 1013.2
SHELL BEACH      0600   80 82  250/  4/  4 1012.7

OFFSHORE STATIONS

STATION/POSITION TIME  TEMP    WIND        PRES    WAVE
                       AIR SEA DIR/SP/G            HT/PER
                 (UTC) (F)     (DEG/KT/KT) (MB)    (FT/S)
64 S DAUPHIN ISL 0512   82 85  300/  4/  6 1013.2    1/ 5

$$




USA.gov is the U.S. government's official web portal to all federal, state and local government web resources and services.